FW5431 Weather Reports


Display with metric or nautical units.
time (UTC)temp
F
wind
direction
speed
MPH
gust
MPH
rain 1hr
in
rain 24hr
in
rain mn
in
humidity
%
barometer
mb
20260504120131 64 77 0.0 0.0 0.00 0.00 0.00 86 1020.8
20260504081603 60 245 0.0 0.0 0.00 0.00 0.00 88 1019.0
20260504050001 60 240 0.0 0.0 0.00 0.00 0.00 87 1020.3
20260504044558 60 240 0.0 0.0 0.00 0.00 0.00 87 1020.6
20260504043114 60 240 0.0 0.0 0.00 0.00 0.00 87 1020.7
20260504041558 60 240 0.0 0.0 0.00 0.00 0.00 87 1020.9
20260504040058 60 240 0.0 0.0 0.00 0.00 0.00 87 1021.1
20260504040002 60 240 0.0 0.0 0.00 0.00 0.00 87 1021.1
20260504034600 60 240 0.0 0.0 0.00 0.00 0.00 87 1021.2
20260504033121 60 239 0.0 0.0 0.00 0.00 0.00 87 1021.3
20260504031600 59 241 0.0 0.0 0.00 0.00 0.00 87 1021.5
20260504030118 59 240 1.0 3.0 0.00 0.00 0.00 88 1021.7
20260504030003 59 240 0.0 3.0 0.00 0.00 0.00 88 1021.7
20260504024559 59 259 0.0 2.0 0.00 0.00 0.00 88 1021.7
20260504023059 59 78 0.0 2.0 0.00 0.00 0.00 89 1021.8
20260504021559 59 70 0.0 0.0 0.00 0.00 0.00 88 1021.7
20260504020107 60 69 0.0 0.0 0.00 0.00 0.00 88 1022.0
20260504020002 60 69 0.0 0.0 0.00 0.00 0.00 88 1022.0
20260504014607 60 69 0.0 0.0 0.00 0.00 0.00 88 1022.1
20260504013059 60 69 0.0 0.0 0.00 0.00 0.00 88 1022.2
20260504011559 60 69 0.0 0.0 0.00 0.00 0.00 88 1022.1
20260504010002 61 69 0.0 0.0 0.00 0.00 0.00 88 1022.2
20260504004559 61 69 0.0 0.0 0.00 0.00 0.00 87 1022.2
20260504003107 61 69 0.0 2.0 0.00 0.00 0.00 87 1022.2
20260504001602 61 68 0.0 0.0 0.00 0.00 0.00 88 1022.2
20260504000104 61 68 0.0 0.0 0.00 0.00 0.00 88 1022.2
20260504000002 61 68 0.0 0.0 0.00 0.00 0.00 88 1022.2
20260503234559 61 68 0.0 0.0 0.00 0.00 0.00 88 1022.0
20260503233102 61 68 0.0 0.0 0.00 0.00 0.00 88 1022.0
20260503231559 61 68 0.0 0.0 0.00 0.00 0.00 87 1022.0
20260503230112 61 68 0.0 0.0 0.00 0.00 0.00 87 1022.0
20260503230002 61 68 0.0 0.0 0.00 0.00 0.00 87 1022.0
20260503224604 61 68 0.0 0.0 0.00 0.00 0.00 87 1022.0
20260503223112 61 68 0.0 0.0 0.00 0.00 0.00 87 1021.8
20260503221559 62 68 0.0 0.0 0.00 0.00 0.00 86 1021.6
20260503220059 62 68 0.0 0.0 0.00 0.00 0.00 85 1021.5
20260503220003 62 68 0.0 0.0 0.00 0.00 0.00 85 1021.5
20260503214601 63 68 0.0 0.0 0.00 0.00 0.00 85 1021.5
20260503213059 63 68 0.0 0.0 0.00 0.00 0.00 84 1021.7
20260503211559 63 68 0.0 0.0 0.00 0.00 0.00 83 1021.6
20260503210059 63 68 0.0 0.0 0.00 0.00 0.00 82 1021.5
20260503210006 63 68 0.0 0.0 0.00 0.00 0.00 82 1021.5
20260503204559 64 68 0.0 2.0 0.00 0.00 0.00 81 1021.4
20260503203059 64 68 0.0 1.0 0.00 0.00 0.00 79 1021.4
20260503201559 65 75 0.0 2.0 0.00 0.00 0.00 78 1021.3
20260503200059 66 75 0.0 2.0 0.00 0.00 0.00 75 1021.2
20260503200002 66 75 0.0 2.0 0.00 0.00 0.00 76 1021.2
20260503194624 67 75 0.0 2.0 0.00 0.00 0.00 69 1021.3
20260503193101 67 45 0.0 3.0 0.00 0.00 0.00 66 1021.3
20260503191612 67 28 0.0 4.0 0.00 0.00 0.00 68 1021.2
20260503190059 67 96 0.0 3.0 0.00 0.00 0.00 68 1021.2
20260503190001 67 96 1.0 3.0 0.00 0.00 0.00 68 1021.2
20260503184559 67 50 0.0 4.0 0.00 0.00 0.00 67 1021.2
20260503183105 67 359 1.0 6.0 0.00 0.00 0.00 67 1021.3
20260503181608 67 1 1.0 4.0 0.00 0.00 0.00 67 1021.3
20260503180059 68 50 3.0 7.0 0.00 0.00 0.00 68 1021.4
20260503180010 68 94 4.0 7.0 0.00 0.00 0.00 67 1021.4
20260503174616 68 90 3.0 8.0 0.00 0.00 0.00 65 1021.5
20260503173110 70 151 1.0 3.0 0.00 0.00 0.00 63 1021.5
20260503171559 69 349 1.0 6.0 0.00 0.00 0.00 58 1021.6
20260503170113 69 1 2.0 6.0 0.00 0.00 0.00 59 1021.6